Location: Middle Street
(51.7167°N, 0.0333°E)
Time: 02:53:45
(UTC+00:00)

Cosmos 1315 Rocket - Pass Details

Date: 20 January 2021
Orbit: 529 x 567 km, 81.2° (Epoch: 24 February)

Event Time Altitude Azimuth Distance (km) Brightness Sun altitude
Rises 17:47:55 0° 343° (NNW) 2,699 6.4 -12.1°
Reaches altitude 10° 17:50:06 10° 339° (NNW) 1,808 5.5 -12.4°
Maximum altitude 17:53:58 53° 263° (W) 675 3.7 -13.0°
Drops below altitude 10° 17:57:52 10° 186° (S) 1,813 5.7 -13.6°
Sets 18:00:04 0° 181° (S) 2,708 6.6 -13.9°
